TIME,DELAY(SENSOR),PRES,T(CTD),SAL,OXYGEN,RAWTEMP,T(OPTODE),TCPHASE,FLUOR,BETA(BETA700),BETA(BETA412),BETA(BETA440),CDOM,C(CSC),ED(ED411.90),ED(ED443.80),ED(ED489.40),ED(ED554.70),LU(LU412.20),LU(LU443.80),LU(LU489.40),LU(LU555.00),COMP,TILTX,TILTX(TILTY),CHECK
1348586235,5802,496.8299865722656000,17.5167999267578120,36.4715995788574200,234.1121063232422000,185.6838073730468800,17.5172195434570300,31.7642097473144530,50,108,90,82,66,14507,2147487552,2147767954,2147556754,2147793225,2147311250,2147477641,2147708150,2148240877,2217,7,12,7888
1348586350,5803,485.8299865722656000,17.5515003204345700,36.4735984802246100,231.8332061767578000,184.5527038574218800,17.5516395568847660,31.8601093292236330,50,106,91,83,65,14508,2147487314,2147763867,2147557622,2147793398,2147315090,2147474761,2147713334,2148240118,2350,7,13,56228
1348586467,5804,474.8699951171875000,17.6222991943359380,36.4864997863769500,232.5222015380859400,182.3412017822265600,17.6189403533935550,31.7963905334472660,50,108,89,83,66,14508,2147485750,2147769444,2147554432,2147794422,2147311140,2147475995,2147708397,2148247140,2075,7,13,5468
1348586582,5802,464.3399963378906000,17.6928005218505860,36.4990005493164060,232.9631958007812500,180.0314025878906200,17.6892395019531250,31.7434597015380860,50,107,90,82,65,14507,2147489005,2147766409,2147557046,2147794797,2147314998,2147472100,2147706633,2148245366,1801,7,13,28780
1348586711,5805,452.8500061035156000,17.7693996429443360,36.5144996643066400,234.3361968994140600,177.3343048095703000,17.7713298797607420,31.6401004791259770,49,106,91,83,65,14507,2147488045,2147765513,2147557357,2147792978,2147315108,2147480932,2147708452,2148246582,951,7,12,62724
1348586826,5804,442.7099914550781000,17.8250007629394530,36.5256004333496100,235.7812042236328000,175.6033935546875000,17.8240299224853500,31.5471000671386720,50,105,91,83,65,14508,2147489563,2147767232,2147558857,2147791533,2147314697,2147478464,2147706496,2148246144,316,7,12,16991
1348586953,5804,431.6199951171875000,17.8808994293212900,36.5358009338378900,236.4208068847656200,173.6591033935547000,17.8832206726074220,31.4901790618896500,49,107,91,81,65,14508,2147489142,2147769188,2147559177,2147793042,2147315803,2147474011,2147710189,2148244690,3352,7,13,39915
1348587082,5803,420.3099975585937500,17.9419994354248050,36.5449981689453100,237.2216949462890600,171.8780059814453000,17.9374504089355470,31.4278793334960940,50,106,90,83,65,14509,2147488603,2147760987,2147558299,2147788882,2147312009,2147477248,2147708891,2148244187,3527,7,12,28063
1348587209,5804,409.1400146484375000,17.9890003204345700,36.5530014038085940,237.0906066894531200,170.2492980957031200,17.9870395660400400,31.4123096466064450,49,107,90,83,65,14509,2147492662,2147765366,2147556013,2147792137,2147308269,2147473581,2147704301,2148240064,3334,7,12,22781
1348587338,5803,397.7500000000000000,18.0291004180908200,36.5572013854980500,236.7875976562500000,168.9544067382812500,18.0264701843261720,31.4094009399414060,50,110,90,83,65,14509,2147489837,2147766372,2147557805,2147794066,2147313078,2147477120,2147702592,2148242304,3537,7,13,41292
1348587465,5802,386.4899902343750000,18.0821990966796880,36.5647010803222660,236.3269958496093800,167.1791992187500000,18.0805301666259770,31.4072399139404300,50,107,90,83,64,14509,2147487195,2147764790,2147559305,2147791021,2147309257,2147473938,2147709202,2148240996,3253,7,13,58192
1348587592,5803,375.0400085449219000,18.1315002441406250,36.5721015930175800,236.3242034912109400,165.4790039062500000,18.1323108673095700,31.3848991394042970,50,107,90,82,66,14511,2147491236,2147761572,2147558381,2147791122,2147305453,2147479478,2147709632,2148241362,3256,7,13,29962
1348587709,5802,364.5799865722656000,18.1863002777099600,36.5797004699707000,236.4429016113281200,163.8470001220703000,18.1820201873779300,31.3571300506591800,50,107,89,83,65,14508,2147491858,2147766180,2147557220,2147791222,2147310153,2147477659,2147706998,2148237586,2845,7,13,7626
1348587836,5803,353.5700073242187500,18.2217006683349600,36.5812988281250000,235.3157958984375000,162.5090942382812500,18.2227802276611330,31.3931694030761720,50,107,91,84,64,14509,2147491346,2147766464,2147560676,2147790244,2147317449,2147477421,2147708160,2148242441,1947,7,12,8177
1348587965,5801,342.5700073242187500,18.2758998870849600,36.5856018066406250,234.5227050781250000,160.8719940185547000,18.2726497650146500,31.4090995788574220,50,108,90,83,65,14508,2147492562,2147763648,2147557238,2147794358,2147303698,2147478976,2147702729,2148238628,1984,7,13,10709
1348588104,5804,331.1199951171875000,18.3190002441406250,36.5892982482910160,233.6593017578125000,159.3993072509765600,18.3175201416015620,31.4312801361084000,50,109,91,84,67,14509,2147494189,2147766948,2147557961,2147792886,2147307172,2147479670,2147705581,2148239451,1077,7,12,5134
1348588231,5804,320.9200134277344000,18.3735008239746100,36.5927009582519500,232.2935943603515600,157.6575012207031200,18.3705902099609380,31.4740295410156250,50,108,90,82,64,14510,2147492818,2147763538,2147557531,2147786450,2147313782,2147483492,2147704685,2148244269,492,7,13,12843
1348588372,5805,309.6900024414062500,18.4517002105712900,36.5993003845214840,231.2899017333984400,155.0484924316406200,18.4500999450683600,31.4880409240722660,50,109,90,84,65,14512,2147492882,2147764937,2147561819,2147789485,2147310957,2147481508,2147708854,2148238418,207,7,13,8720
1348588511,5804,298.6300048828125000,18.5471000671386720,36.6071014404296900,229.7131042480468800,151.8852996826172000,18.5465202331542970,31.5228996276855470,51,108,91,83,65,14510,2147492982,2147765028,2147563291,2147792000,2147305728,2147485092,2147711158,2148238390,3513,7,13,29822
1348588658,5804,285.7500000000000000,18.6676006317138670,36.6148986816406250,227.9942932128906200,148.0256958007812500,18.6641807556152340,31.5559291839599600,51,107,89,83,66,14512,2147491986,2147768054,2147563328,2147791835,2147310089,2147480649,2147707830,2148242788,2118,7,12,27799
1348588761,5803,275.1199951171875000,18.7572994232177730,36.6096000671386700,228.1936035156250000,144.9893035888672000,18.7567691802978500,31.5055103302001950,50,107,90,84,65,14513,2147493202,2147765394,2147560411,2147788790,2147308251,2147482816,2147707428,2148240448,1882,7,12,2278
1348588876,5805,263.3399963378906000,18.9223003387451170,36.6124000549316400,227.7937011718750000,139.5316925048828000,18.9232501983642580,31.4520206451416000,50,106,90,84,65,14516,2147495670,2147762806,2147566546,2147786916,2147308388,2147482212,2147709458,2148242185,1474,7,12,8915
1348588993,5804,251.5500030517578000,19.0347003936767580,36.6166992187500000,228.4418029785156200,136.0773010253906200,19.0286598205566400,31.3741397857666000,50,106,90,83,66,14515,2147496941,2147773019,2147595492,2147787072,2147308004,2147485010,2147727881,2148239689,829,7,12,56966
1348589096,5805,241.4600067138672000,19.1289005279541000,36.6208992004394500,230.7509002685547000,133.0982971191406200,19.1195793151855470,31.2211399078369140,50,108,90,84,65,14518,2147495524,2147792539,2147659483,2147788909,2147304365,2147500352,2147762880,2148241508,298,7,12,3508
1348589211,5802,230.3699951171875000,19.2250995635986330,36.6017990112304700,236.0480041503906200,129.5312957763672000,19.2284793853759770,30.9196300506591800,50,107,89,83,65,14518,2147498139,2147789257,2147651693,2147788187,2147307766,2147501549,2147754770,2148242870,161,8,13,4212
1348589328,5804,219.4600067138672000,19.2840995788574220,36.5878982543945300,243.6374053955078000,127.7640991210937500,19.2824401855468750,30.5439090728759770,51,109,89,85,64,14516,2147501293,2147824941,2147748461,2147787620,2147304868,2147521920,2147813403,2148244004,545,7,12,16964
1348589455,5803,208.0000000000000000,19.3087997436523440,36.5774002075195300,251.1398925781250000,126.9478988647461000,19.3073692321777340,30.1975898742675780,53,112,90,83,62,14512,2147504256,2147853613,2147844562,2147791296,2147309430,2147541778,2147866139,2148245284,263,7,12,56454
1348589589,5802,196.4700012207031200,19.3311004638671880,36.5761985778808600,251.9888000488281200,126.2314987182617200,19.3292407989501950,30.1508102416992200,57,113,90,84,62,14512,2147511826,2147896667,2147947922,2147789394,2147319140,2147570157,2147925165,2148252324,3592,7,12,1813
1348589644,5804,192.1900024414062500,19.3495998382568360,36.5766983032226560,251.9656066894531200,125.5701980590820300,19.3494396209716800,30.1434001922607420,58,112,91,84,62,14509,2147515145,2147912146,2148004662,2147787803,2147316854,2147581046,2147953609,2148251648,3468,7,12,33518
1348589699,5802,187.9600067138672000,19.3645000457763670,36.5754013061523440,251.8011016845703000,124.9974975585937500,19.3669395446777340,30.1431999206542970,61,113,89,84,63,14507,2147516022,2147898038,2147941769,2147785773,2147310546,2147564644,2147915821,2148245979,3100,7,12,28043
1348589754,5802,183.6900024414062500,19.3894996643066400,36.5759010314941400,251.9044952392578000,124.3234024047851600,19.3875293731689450,30.1298809051513670,65,113,91,83,64,14503,2147510134,2147866624,2147834633,2147790482,2147312777,2147549577,2147849728,2148245833,2802,7,13,5518
1348589809,5800,179.4400024414062500,19.4160003662109380,36.5764007568359400,251.6405944824218800,123.1171035766601600,19.4243793487548830,30.1257305145263670,69,113,90,83,64,14503,2147516150,2147880438,2147865718,2147788470,2147316333,2147548809,2147870080,2148242377,2857,7,12,194
1348589864,5802,175.1900024414062500,19.4550991058349600,36.5824012756347660,251.1750946044922000,121.8779983520507800,19.4622306823730470,30.1302299499511720,72,116,91,85,63,14498,2147522889,2147916160,2147952859,2147786377,2147316361,2147569307,2147910180,2148247341,2487,7,13,34586
1348589943,5803,169.5000000000000000,19.5256004333496100,36.5868988037109400,251.7626953125000000,119.8389968872070300,19.5245399475097660,30.0780792236328120,75,116,90,85,65,14497,2147534893,2147959460,2148045586,2147788553,2147322477,2147587885,2147947218,2148251648,2353,7,12,42813
1348589998,5804,165.9400024414062500,19.5545005798339840,36.5900001525878900,252.5428009033203000,118.9368972778320300,19.5521106719970700,30.0322799682617200,77,116,90,84,65,14493,2147540818,2147987666,2148110089,2147789065,2147320740,2147600045,2147975021,2148253760,2111,7,13,58245
1348590053,5802,162.3000030517578000,19.5830001831054700,36.5923004150390600,252.9916992187500000,118.0234985351562500,19.5800304412841800,30.0009193420410160,77,117,91,86,65,14489,2147549376,2148008859,2148144649,2147787867,2147331995,2147608566,2147988598,2148252498,1931,7,13,62960
1348590120,5803,157.8000030517578000,19.6494998931884770,36.5974998474121100,253.4147033691406200,116.0465011596679700,19.6404590606689450,29.9570808410644530,79,119,92,85,65,14483,2147566537,2148048438,2148219483,2147789750,2147336292,2147626477,2148018669,2148256630,1806,7,12,59464
1348590175,5802,154.1600036621093800,19.6658000946044920,36.5989990234375000,253.8986053466797000,115.2091979980468800,19.6660594940185550,29.9253597259521500,80,119,91,85,65,14480,2147599570,2148183122,2148523081,2147787401,2147349988,2147687853,2148155721,2148267328,2158,7,13,7194
1348590253,5803,149.5399932861328000,19.7749004364013670,36.6072006225585940,254.4084014892578000,111.9345016479492200,19.7661895751953120,29.8612594604492200,85,119,91,85,64,14485,2147613632,2148214262,2148540352,2147789074,2147353664,2147696000,2148152640,2148265389,2498,7,13,40944
1348590344,5800,145.7400054931640600,19.8689002990722660,36.6165008544921900,255.4006042480468800,108.9545974731445300,19.8573398590087900,29.7803497314453120,87,120,92,85,66,14484,2147673197,2148381339,2148893321,2147792246,2147372681,2147773595,2148312164,2148278564,2162,7,12,43878
1348590447,5805,141.9499969482422000,19.9115009307861330,36.6171989440918000,257.7011108398437500,107.4027023315429700,19.9048099517822270,29.6623497009277340,85,122,91,85,65,14484,2147752987,2148613549,2149335204,2147792969,2147401051,2147877622,2148507885,2148293750,1851,7,13,16275
1348590564,5802,137.8999938964843800,19.9899005889892580,36.6214981079101560,260.3351135253906000,104.8448028564453100,19.9830894470214840,29.5187492370605470,85,116,91,85,65,14483,2147802377,2148698331,2149425792,2147796187,2147424073,2147912128,2148534427,2148294326,1665,7,13,40652
1348590679,5803,134.2400054931640600,20.0890007019042970,36.6197013854980500,262.2668151855469000,101.8511962890625000,20.0747203826904300,29.4001197814941400,87,118,91,85,65,14481,2147912301,2148960475,2149885869,2147800932,2147457033,2148024704,2148750116,2148310473,1298,7,13,48639
1348590862,5803,129.5200042724609400,20.1912002563476560,36.6290016174316400,261.6778869628906000,98.0472106933593800,20.1912002563476560,29.3761901855468750,88,119,91,85,65,14471,2147871076,2148756352,2149387035,2147797540,2147446070,2147923099,2148507520,2148295414,970,7,12,32958
1348590953,5806,125.9800033569336000,20.3248004913330080,36.6431007385253900,261.9219970703125000,94.0276412963867200,20.3143291473388670,29.3151092529296880,88,120,92,85,63,14471,2147863195,2148660918,2149139666,2147795949,2147444726,2147880466,2148391414,2148286701,888,7,13,44628
1348591068,5806,121.9599990844726600,20.5032005310058600,36.6562004089355500,265.2597961425781000,88.2680969238281200,20.4908599853515620,29.1051292419433600,86,119,93,85,62,14467,2148167085,2149355062,2150326601,2147808054,2147559862,2148188690,2148909092,2148328420,3580,7,12,41103
1348591182,5804,117.8799972534179700,20.7042999267578120,36.6689987182617200,261.5762023925781000,81.7506103515625000,20.6907691955566400,29.1740398406982420,92,131,94,86,65,14465,2149486098,2152317257,2155439259,2147857334,2148036452,2149467190,2151102016,2148498249,3048,7,12,10576
1348591273,5803,113.8499984741211000,20.8197994232177730,36.6678009033203100,257.7438964843750000,77.8966598510742200,20.8090496063232420,29.2853298187255860,88,124,92,87,63,14460,2149261760,2151468361,2153579318,2147846436,2147958820,2149104027,2150307766,2148441618,3095,7,12,25128
1348591376,5803,109.8499984741211000,21.0163993835449220,36.6600990295410160,262.3977050781250000,72.7381286621093800,20.9674701690673830,29.0268402099609380,85,124,91,88,62,14450,2150677074,2154154532,2157758994,2147901613,2148487049,2150267328,2152116973,2148588928,2697,7,13,14504
1348591490,5805,105.7699966430664000,21.2203006744384770,36.6651000976562500,271.0466003417969000,65.0553131103515600,21.2035903930664060,28.5824108123779300,79,131,93,89,61,14440,2149984886,2152275684,2154187227,2147865344,2148271030,2149509805,2150641600,2148478189,3483,7,12,61538
1348591581,5805,101.7099990844726600,21.5993995666503900,36.6778984069824200,276.9330139160156000,54.5799102783203100,21.5259494781494140,28.2234096527099600,82,129,93,88,61,14436,2153465508,2158534848,2163623780,2148022409,2149680557,2152360082,2154861915,2148833069,2921,7,12,35056
1348591648,5803,98.9899978637695300,21.7903003692626950,36.6940002441406250,278.1883850097656000,46.8938407897949200,21.7627792358398440,28.0808296203613280,80,130,92,88,61,14431,2152894427,2157117549,2161092068,2147994880,2149560155,2151900845,2153979090,2148762276,2809,7,12,19750
1348591703,5799,96.8700027465820300,21.9253997802734380,36.7164001464843750,278.1098022460937500,42.4103584289550800,21.9010505676269530,28.0288696289062500,78,128,94,87,59,14441,2155948745,2162436553,2169099483,2148169206,2150781110,2154175177,2157124964,2149036096,2912,7,12,56537
1348591760,5803,94.7799987792968800,22.0492992401123050,36.7215003967285160,278.1853942871094000,38.1039199829101560,22.0339603424072270,27.9731597900390620,80,126,93,87,60,14436,2153035053,2156920347,2160423341,2148014089,2149736173,2151958637,2153772873,2148747072,3119,7,13,60905
1348591815,5804,92.8600006103515600,22.1651000976562500,36.7351989746093750,278.7726135253906000,34.5332107543945300,22.1442203521728500,27.9072093963623050,80,129,93,89,59,14437,2151687506,2154531894,2156906148,2147956772,2149187264,2150841380,2152145892,2148611081,3282,7,13,24778
1348591870,5803,91.1200027465820300,22.2222003936767580,36.7380981445312500,279.2413940429687500,32.0251502990722660,22.2217102050781250,27.8588790893554700,84,129,93,88,58,14427,2151374016,2153875355,2155844324,2147940717,2149080539,2150548736,2151658889,2148573952,3399,7,13,54769
1348591937,5804,89.2200012207031200,22.3593997955322270,36.7300987243652340,279.6116943359375000,28.0500297546386720,22.3445892333984380,27.7963695526123050,84,129,93,89,60,14426,2151702646,2154236772,2156205248,2147968109,2149265874,2150762642,2151843629,2148593600,3467,7,12,46835
1348592028,5803,87.4199981689453100,22.3985996246337900,36.7221984863281250,278.6748046875000000,26.5971393585205080,22.3895206451416000,27.8140602111816400,82,129,93,89,58,14427,2150788489,2152693915,2153969764,2147909696,2148862226,2150015104,2150810724,2148501622,3326,7,12,56508
1348592142,5802,84.8399963378906200,22.5224990844726560,36.6556015014648440,280.0697021484375000,22.6541900634765620,22.5115108489990230,27.7133998870849600,82,132,94,90,59,14418,2151390180,2153417636,2154752859,2147951963,2149192338,2150434459,2151232292,2148544429,1859,7,12,51451
1348592197,5803,83.3600006103515600,22.7492008209228500,36.6517982482910160,280.6228027343750000,17.3298397064209000,22.6763706207275400,27.6279792785644530,87,130,93,88,59,14414,2151320685,2153235986,2154442733,2147946130,2149182272,2150364178,2151100608,2148535177,1172,8,12,295
1348592408,5804,81.4599990844726600,23.2373008728027340,36.7130012512207000,280.3327026367187500,-0.5280286073684692,23.2304401397705080,27.4228706359863280,81,129,95,90,58,14417,2151983021,2154075757,2155428681,2147987730,2149593481,2150894381,2151657837,2148585152,1692,7,12,55627
1348592499,5803,79.0800018310546900,23.4151000976562500,36.7029991149902340,280.8380126953125000,-3.4138441085815430,23.3201503753662100,27.3692207336425780,83,133,93,89,58,14408,2152983076,2155320932,2156812406,2148043300,2150225901,2151674166,2152446921,2148662363,953,7,12,14755
1348592566,5805,77.5000000000000000,23.5701007843017580,36.6240997314453100,280.7327880859375000,-10.3792200088500980,23.5368804931640620,27.2893009185791000,88,129,93,88,59,14414,2154434916,2157285083,2159182052,2148136265,2151061988,2152808310,2153699968,2148780269,561,7,12,55288
1348592740,5804,75.1200027465820300,23.8866996765136720,36.6414985656738300,266.5671081542969000,-20.6076698303222660,23.8556709289550780,27.7079505920410160,94,133,93,89,60,14398,2156160246,2159307254,2161290852,2148235931,2151928576,2153879670,2154770752,2148886811,2853,7,12,4904
1348592819,5804,73.4400024414062500,23.9228000640869140,36.6128005981445300,250.7648925781250000,-22.4165802001953120,23.9121208190917970,28.3307895660400400,99,131,92,87,61,14400,2158089243,2161729362,2164054747,2148377965,2152735488,2154997184,2156072457,2149028397,1752,7,12,34947
1348593017,5805,71.1500015258789000,24.1371994018554700,36.5698013305664060,248.2982025146484400,-29.4248409271240230,24.1310100555419920,28.3495292663574220,96,133,91,88,61,14400,2157196050,2160210121,2161821924,2148315840,2152011145,2153883062,2154780781,2148925641,929,7,12,47595
1348593084,5804,68.8300018310546900,24.2779006958007800,36.5660018920898440,246.6755065917968800,-33.6266403198242200,24.2623901367187500,28.3673591613769530,96,133,92,88,60,14399,2153797028,2155457590,2155940635,2148087570,2150287506,2151386002,2151862217,2148642194,420,7,12,53754
1348593139,5807,67.0000000000000000,24.3784008026123050,36.5588989257812500,244.6824951171875000,-36.7791709899902340,24.3610496520996100,28.4145393371582030,91,130,92,88,61,14405,2152444379,2153674340,2153863186,2148010304,2149625344,2150463168,2150836827,2148543789,32,8,12,56201
1348593218,5804,65.5400009155273400,24.5552005767822270,36.5541000366210940,243.5579071044922000,-39.2804489135742200,24.4393692016601560,28.4327602386474600,95,132,93,87,60,14404,2151306724,2152235209,2152243556,2147942902,2149081755,2149729938,2150027611,2148458112,2852,8,12,9029
1348593368,5802,63.1599998474121100,24.7469005584716800,36.4995994567871100,242.2709960937500000,-48.5458793640136700,24.7298698425292970,28.3747806549072270,90,132,92,89,59,14392,2153154560,2154247716,2154253120,2148053924,2149922761,2150711670,2151011172,2148574628,3543,8,12,26879
1348593435,5805,61.4399986267089840,24.8819999694824220,36.4679985046386700,242.8435974121093800,-52.9591407775878900,24.8684501647949220,28.2956600189209000,87,136,93,90,60,14391,2154260077,2155442450,2155397129,2148124525,2150432045,2151301997,2151588361,2148643794,129,8,12,59092
1348593490,5802,60.5000000000000000,25.0690002441406250,36.4398002624511700,247.1071929931640600,-56.6869010925293000,24.9856090545654300,28.0661201477050780,89,136,94,90,59,14363,2155321499,2156668809,2156655222,2148198336,2150937097,2151917787,2152216009,2148714971,3045,7,12,19997
1348593676,5805,58.3199996948242200,25.5217990875244140,36.3981018066406250,247.8023071289062500,-68.5051422119140600,25.3577194213867200,27.8923206329345700,81,132,96,89,58,14385,2163988544,2166615094,2167035483,2148853385,2155103104,2156937216,2157434980,2149315437,2222,8,12,34473
1348593982,5804,56.4599990844726560,25.7579002380371100,36.3773002624511700,245.5471038818359400,-80.5703430175781200,25.7386894226074220,27.8414192199707030,78,137,92,90,59,14384,2178524416,2183006235,2183998674,2150102573,2162458678,2165548041,2166139474,2150359890,2860,7,12,19872
1348594196,5806,54.4700012207031250,25.8756999969482420,36.3630981445312500,245.2561950683593800,-84.7866973876953100,25.8720893859863280,27.8023300170898440,79,135,94,90,59,14383,2199402934,2207500077,2210426825,2152267410,2172896822,2178048347,2179018313,2151996534,309,8,12,14725
1348594312,5803,52.8800010681152340,26.1112003326416000,36.3358001708984400,244.1726989746093800,-91.8682327270507800,26.0964508056640620,27.7625999450683600,75,133,94,90,64,14376,2199975872,2206744731,2208399926,2152490660,2174100205,2178822025,2179234477,2152052470,3414,7,12,49799
1348594417,5803,50.9300003051757800,26.4612998962402340,36.3064994812011700,241.7738037109375000,-103.0851974487304700,26.4526805877685550,27.7293205261230470,74,139,92,89,60,14364,2203181238,2210217115,2211893796,2153045019,2176268324,2181114925,2181374729,2152383204,3569,7,12,12256
1348594655,5802,48.7500000000000000,26.7549991607666000,36.2849006652832000,239.4913940429687500,-113.5695037841796900,26.7865905761718750,27.7008590698242200,75,138,93,90,60,14360,2228543734,2238095917,2240245942,2155984347,2190882523,2197764964,2197717604,2154485906,3109,6,12,53216
1348594916,5802,46.7099990844726560,26.9953994750976560,36.2566986083984400,238.8934020996093800,-120.0826034545898400,26.9944992065429700,27.6477203369140620,70,135,93,90,55,14348,2210643858,2215100608,2214105956,2153850944,2183479360,2186948214,2184950308,2152957814,2240,7,12,29776
1348595009,5803,44.7500000000000000,27.1333007812500000,36.2356986999511700,238.3049011230468800,-124.5208969116211000,27.1363906860351560,27.6193199157714840,71,139,94,89,60,14344,2234992448,2241409435,2240835364,2157065819,2199898651,2204087798,2200434386,2155148315,1378,7,11,58169
1348595185,5804,42.9199981689453100,27.6077003479003900,36.2257003784179700,236.1977996826172000,-139.4976043701172000,27.6165008544921880,27.5295906066894530,66,138,94,90,58,14360,2217709010,2221201106,2219374290,2155447899,2191565833,2193511936,2189125275,2153737197,1487,7,11,63090
1348595350,5805,40.8199996948242200,27.7045993804931640,36.2038993835449200,235.1817016601562500,-142.5390930175781200,27.7142505645751950,27.5373802185058600,63,130,92,89,54,14355,2207288923,2209678601,2207680932,2154649837,2189261504,2189932352,2184590491,2153140717,831,8,11,36805
1348595479,5803,38.8600006103515600,27.7147006988525400,36.1930999755859400,234.7920989990234400,-142.7846069335937500,27.7221508026123050,27.5516605377197270,62,133,92,88,60,14349,2209719744,2211526363,2209296905,2155675885,2194597202,2193894180,2186795657,2153572443,1104,8,12,32964